User: anonymous
Location: Unspecified
(0.0000°N, 0.0000°E)
Time: 02:34:31
(UTC+00:00)
Language:

Tiros 1 - Orbit

View from above orbital plane
View from above orbital plane
View from above satellite
View from above satellite

Ground track
Ground track

The orbit data is extracted from the following two-line orbital elements,

1 00029U 60002B   14209.47323637  .00000151  00000-0  54519-4 0  2808
2 00029 048.3805 015.3930 0024017 033.5694 326.6734 14.73253739901326
Epoch (UTC): 28 July 2014 11:21:27
Eccentricity: 0.0024017
inclination: 48.3805°
perigee height: 634 km
apogee height: 667 km
right ascension of ascending node: 15.3930°
argument of perigee: 33.5694°
revolutions per day: 14.73253739
mean anomaly at epoch: 326.6734°
orbit number at epoch: 90132

The dashed part of the orbit path shows where the satellite is in the earth's shadow,  

DLR